[[{"header":{"parameterUnit":"m.s-1","parameterCategory":1,"la1":30.2991,"la2":30.254,"lo1":-89.0895,"lo2":-89.0444,"dx":0.0017,"dy":0.0017,"nx":28,"ny":28,"refTime":"2023-02-06T09:00:00:Z","depth":0,"parameterNumber":2,"parameterNumberName":"U-component_of_WINDS"},"data":[0,0,0,0,0,0,0,0,0,0,0,0,0,0,0,0,0,0,0,0,0,0,0,0,0,0,0,0,0,0,0,0,0,0,0,0,0,0,0,0,0,0,0,0,0,0,0,0,0,0,0,0,0,0,0,0,0,0,-5.022,-5.022,0,-5.0253,-5.0254,-5.0254,-5.0184,-5.0182,-5.018,-5.0177,-5.0207,-5.0209,-5.0212,0,0,0,0,0,0,0,0,0,0,0,0,0,-5.0092,-5.0095,-5.022,-5.022,-5.0221,-5.0253,-5.0254,-5.0254,-5.0184,-5.0182,-5.0179,-5.0176,-5.0206,-5.0209,-5.0213,0,0,0,0,0,0,0,0,0,0,0,0,0,-5.0138,-5.0095,-5.022,-5.019,-5.0188,-5.0253,-5.0254,-5.0254,-5.0185,-5.0182,-5.0178,-5.0175,-5.0205,-5.0209,-5.0213,-5.0307,0,0,-5.0226,-5.0228,0,0,0,0,0,0,0,0,-5.0136,-5.0143,-5.0194,-5.0192,-5.019,-5.0211,-5.0219,-5.0272,-5.0186,-5.0186,-5.0177,-5.0173,-5.0211,-5.0214,-5.0228,-5.0309,-5.031,-5.0227,-5.0229,-5.0231,-5.0232,0,0,0,0,0,0,0,-5.0133,-5.0141,-5.0233,-5.0195,-5.0192,-5.0174,-5.0177,-5.0229,-5.0217,-5.0186,-5.0181,-5.0186,-5.0209,-5.0224,-5.0228,-5.031,-5.0227,-5.023,-5.0233,-5.0235,-5.0469,-5.0473,0,0,0,0,0,0,-5.0134,-5.0139,-5.0232,-5.0234,-5.0154,-5.0179,-5.0182,-5.0208,-5.0216,-5.0214,-5.0189,-5.0183,-5.0218,-5.0223,-5.0229,-5.0338,-5.0231,-5.0235,-5.0238,-5.0466,-5.047,-5.0474,0,0,0,0,0,0,-5.0131,-5.0143,-5.0231,-5.0185,-5.0195,-5.0185,-5.0214,-5.021,-5.0225,-5.0218,-5.0215,-5.0207,-5.0216,-5.0223,-5.0288,-5.0338,-5.0237,-5.0241,-5.0462,-5.0467,-5.0472,-5.0559,0,0,0,0,0,0,-5.0128,-5.0142,-5.0179,-5.0187,-5.0198,-5.0291,-5.0217,-5.0213,-5.0233,-5.0225,-5.0234,-5.0232,-5.0213,-5.0282,-5.0293,-5.0342,-5.0244,-5.0457,-5.0464,-5.047,-5.0552,-5.0567,-5.058,0,0,0,0,0,-5.0124,-5.0201,-5.0181,-5.0193,-5.0244,-5.0294,-5.03,-5.0278,-5.0238,-5.0273,-5.0269,-5.0232,-5.0332,-5.029,-5.0301,-5.0352,-5.0454,-5.0462,-5.047,-5.0545,-5.0564,-5.0579,0,0,0,0,0,0,-5.0197,-5.0202,-5.0179,-5.0262,-5.0279,-5.0282,-5.0327,-5.0299,-5.0326,-5.0317,-5.0287,-5.029,-5.0361,-5.0364,-5.0317,-5.0444,-5.0386,-5.0396,-5.0439,-5.0457,-5.047,-5.0467,-5.0248,0,0,0,0,0,-5.0224,-5.0266,-5.0267,-5.034,-5.0349,-5.0337,-5.0358,-5.034,-5.0355,-5.0361,-5.0362,-5.0377,-5.0411,-5.0435,-5.0466,-5.0553,-5.0552,-5.0594,-5.0608,-5.062,-5.0628,-5.0673,-5.069,-5.0501,-5.0501,-5.0501,0,0,-5.0277,-5.0285,-5.0313,-5.0355,-5.0365,-5.0408,-5.0343,-5.0391,-5.0422,-5.0368,-5.043,-5.0432,-5.0446,-5.0523,-5.0556,-5.0527,-5.0681,-5.063,-5.0639,-5.0642,-5.0683,-5.0701,-5.0717,-5.0507,-5.0506,-5.0505,0,0,-5.0396,-5.0408,-5.0469,-5.0482,-5.05,-5.0491,-5.0506,-5.0515,-5.0514,-5.0577,-5.0537,-5.0573,-5.0634,-5.0645,-5.0659,-5.0785,-5.0751,-5.0797,-5.0869,-5.0913,-5.0928,-5.0941,-5.0983,-5.0999,-5.0806,-5.0806,-5.0806,0,-5.046,-5.0525,-5.0503,-5.0555,-5.0573,-5.053,-5.059,-5.0603,-5.063,-5.0643,-5.0611,-5.0686,-5.0693,-5.077,-5.0801,-5.0815,-5.0829,-5.0794,-5.0928,-5.094,-5.0952,-5.0993,-5.1009,-5.0811,-5.0811,-5.081,-5.081,0,-5.0601,-5.0647,-5.0694,-5.0723,-5.0747,-5.0803,-5.0789,-5.0816,-5.0797,-5.0792,-5.0855,-5.0863,-5.0894,-5.0912,-5.0893,-5.0988,-5.0969,-5.0933,-5.0873,-5.0976,-5.1013,-5.1029,-5.0819,-5.0817,-5.0815,-5.0814,0,0,-5.0764,-5.0783,-5.08,-5.0812,-5.083,-5.0864,-5.0918,-5.0951,-5.0974,-5.0994,-5.1037,-5.1091,-5.1058,-5.1074,-5.1056,-5.1095,-5.1192,-5.1054,-5.1053,-5.1077,-5.1294,-5.1319,-5.1337,-5.1171,-5.1174,-5.1177,-5.1292,0,-5.088,-5.0974,-5.0958,-5.1048,-5.1089,-5.1049,-5.1096,-5.1111,-5.1108,-5.1141,-5.1137,-5.1175,-5.113,-5.1139,-5.1176,-5.1172,-5.1235,-5.1164,-5.1208,-5.121,-5.1203,-5.1357,-5.1383,-5.1492,-5.1307,-5.1309,-5.1311,0,-5.1028,-5.1056,-5.1151,-5.1162,-5.1179,-5.1221,-5.125,-5.1283,-5.1299,-5.1295,-5.1314,-5.1289,-5.1341,-5.1284,-5.1354,-5.1306,-5.1324,-5.1325,-5.1329,-5.1329,-5.1264,-5.1359,-5.1526,-5.1541,-5.1334,-5.1332,-5.1331,0,-5.1134,-5.1196,-5.126,-5.1273,-5.1288,-5.1319,-5.1326,-5.134,-5.1361,-5.1386,-5.1399,-5.143,-5.1446,-5.1469,-5.1453,-5.1413,-5.1525,-5.1467,-5.152,-5.1521,-5.1543,-5.1541,-5.1712,-5.156,-5.1559,-5.1559,-5.1559,0,-5.1264,-5.1323,-5.1308,-5.1348,-5.1413,-5.1393,-5.1457,-5.146,-5.1473,-5.151,-5.1478,-5.1514,-5.1492,-5.1526,-5.1514,-5.1573,-5.1581,-5.1577,-5.1572,-5.1578,-5.1578,-5.1586,-5.1577,-5.1563,-5.1562,-5.1562,-5.1561,0,-5.1391,-5.1385,-5.1452,-5.1463,-5.1467,-5.1514,-5.1522,-5.1558,-5.1554,-5.1602,-5.1613,-5.1606,-5.1644,-5.1631,-5.1672,-5.1664,-5.1738,-5.1725,-5.1733,-5.1728,-5.1782,-5.1776,-5.1961,-5.1984,-5.182,-5.1822,-5.1823,0,-5.1473,-5.1518,-5.1534,-5.1558,-5.1569,-5.1608,-5.163,-5.1613,-5.1637,-5.166,-5.1692,-5.1729,-5.1756,-5.182,-5.1817,-5.1848,-5.1834,-5.1897,-5.1838,-5.1842,-5.1831,-5.1827,-5.1831,-5.1907,-5.1909,-5.1911,-5.1912,0,-5.1617,-5.1612,-5.1646,-5.1679,-5.1707,-5.1732,-5.1753,-5.1775,-5.1759,-5.1788,-5.1828,-5.1849,-5.1892,-5.1928,-5.1956,-5.1962,-5.1934,-5.1931,-5.1945,-5.1949,-5.195,-5.1948,-5.1762,-5.1926,-5.1925,-5.1924,-5.1923,-5.1922,-5.1722,-5.176,-5.1777,-5.1816,-5.1831,-5.1853,-5.1887,-5.1889,-5.1922,-5.1957,-5.1945,-5.1991,-5.2006,-5.2041,-5.2052,-5.2086,-5.2061,-5.2081,-5.2085,-5.209,-5.2095,-5.1949,-5.2091,-5.2091,-5.209,-5.209,-5.209,0,-5.1862,-5.1872,-5.1909,-5.1941,-5.1971,-5.1946,-5.1969,-5.1995,-5.2036,-5.2054,-5.2083,-5.2128,-5.2163,-5.2165,-5.2197,-5.2224,-5.2212,-5.2232,-5.2228,-5.223,-5.2117,-5.2101,-5.2242,-5.2242,-5.2242,-5.2242,-5.2242,-5.2242,-5.1938,-5.2,-5.1998,-5.2067,-5.2076,-5.2122,-5.2137,-5.2156,-5.217,-5.2223,-5.2253,-5.2255,-5.2265,-5.2298,-5.2329,-5.2328,-5.234,-5.2365,-5.2359,-5.2253,-5.2238,-5.2223,-5.2208,-5.2369,-5.2369,-5.2469,-5.247,-5.247]},{"header":{"parameterUnit":"m.s-1","parameterCategory":1,"la1":30.2991,"la2":30.254,"lo1":-89.0895,"lo2":-89.0444,"dx":0.0017,"dy":0.0017,"nx":28,"ny":28,"refTime":"2023-02-06T09:00:00:Z","depth":0,"parameterNumber":3,"parameterNumberName":"V-component_of_WINDS"},"data":[0,0,0,0,0,0,0,0,0,0,0,0,0,0,0,0,0,0,0,0,0,0,0,0,0,0,0,0,0,0,0,0,0,0,0,0,0,0,0,0,0,0,0,0,0,0,0,0,0,0,0,0,0,0,0,0,0,0,2.0048,2.0049,0,2.0123,2.0124,2.0125,2.0135,2.0135,2.0134,2.0133,2.0208,2.021,2.0213,0,0,0,0,0,0,0,0,0,0,0,0,0,1.9913,1.9915,2.0048,2.0049,2.005,2.0123,2.0124,2.0125,2.0136,2.0135,2.0134,2.0133,2.0207,2.021,2.0213,0,0,0,0,0,0,0,0,0,0,0,0,0,1.9978,1.9916,2.0047,2.0064,2.0066,2.0123,2.0124,2.0125,2.0136,2.0135,2.0134,2.0133,2.0206,2.021,2.0214,2.0258,0,0,2.0226,2.0227,0,0,0,0,0,0,0,0,1.9974,1.9983,2.006,2.0063,2.0065,2.0119,2.0104,2.017,2.0136,2.0109,2.0133,2.0132,2.0179,2.0185,2.0201,2.0262,2.0265,2.0226,2.0228,2.023,2.0231,0,0,0,0,0,0,0,1.997,1.998,2.0077,2.0062,2.0065,2.0067,2.0075,2.0116,2.0149,2.0111,2.0112,2.0121,2.018,2.0197,2.0203,2.0266,2.0226,2.0229,2.0232,2.0233,2.0371,2.0372,0,0,0,0,0,0,1.9962,1.9976,2.0075,2.008,2.0016,2.0071,2.008,2.0103,2.0148,2.0154,2.0122,2.0122,2.0191,2.0198,2.0206,2.0264,2.023,2.0234,2.0236,2.037,2.0371,2.0373,0,0,0,0,0,0,1.9959,1.9971,2.0072,2.0028,2.0041,2.0074,2.01,2.0105,2.0122,2.0157,2.0162,2.0134,2.0191,2.02,2.0246,2.0267,2.0235,2.0239,2.0368,2.037,2.0372,2.0379,0,0,0,0,0,0,1.9956,1.997,1.9987,2.0028,2.0043,2.0111,2.0101,2.0107,2.0129,2.0129,2.0169,2.0175,2.0191,2.024,2.025,2.0272,2.0242,2.0367,2.0369,2.0372,2.0377,2.0381,2.0384,0,0,0,0,0,1.9951,1.9985,1.9988,2.0,2.0066,2.0112,2.0121,2.0139,2.0131,2.0149,2.0171,2.0174,2.0263,2.0245,2.0256,2.0279,2.0365,2.0369,2.0371,2.0376,2.038,2.0384,0,0,0,0,0,0,1.9943,1.999,1.9994,2.0043,2.0074,2.0114,2.0137,2.0143,2.0176,2.0175,2.0195,2.0204,2.025,2.0269,2.0248,2.0327,2.0313,2.0319,2.0313,2.0318,2.0321,2.0316,2.0245,0,0,0,0,0,1.9947,1.9982,2.0021,2.006,2.0075,2.0104,2.0125,2.0137,2.0169,2.0182,2.0207,2.0238,2.0274,2.0296,2.033,2.038,2.039,2.0401,2.0405,2.0407,2.0412,2.0443,2.0449,2.0383,2.0383,2.0382,0,0,1.9956,1.9986,2.0006,2.0059,2.0085,2.0121,2.0115,2.0151,2.0179,2.0187,2.0233,2.0253,2.0289,2.0338,2.0361,2.0355,2.0433,2.0411,2.0413,2.0417,2.0447,2.0453,2.0459,2.0385,2.0384,2.0384,0,0,1.999,2.0016,2.0053,2.0079,2.0119,2.0138,2.0147,2.0187,2.0202,2.0248,2.0257,2.0289,2.0348,2.0375,2.0396,2.0444,2.0448,2.0454,2.0473,2.0503,2.0508,2.0513,2.0533,2.054,2.0459,2.0459,2.0459,0,1.9996,2.0051,2.0071,2.0109,2.0133,2.0144,2.0183,2.0207,2.0255,2.0271,2.0264,2.0342,2.0367,2.0424,2.0436,2.0452,2.0464,2.045,2.0506,2.0511,2.0516,2.0535,2.0542,2.0459,2.0459,2.0459,2.0459,0,2.0057,2.0095,2.012,2.0169,2.0196,2.0233,2.026,2.0284,2.0295,2.0315,2.0364,2.0394,2.0437,2.045,2.0459,2.051,2.0506,2.0502,2.0489,2.0523,2.0541,2.0549,2.046,2.046,2.046,2.046,0,0,2.0087,2.0149,2.0158,2.0182,2.0228,2.0258,2.0297,2.034,2.0362,2.0395,2.043,2.0481,2.048,2.0504,2.0516,2.0542,2.0582,2.0536,2.0537,2.0546,2.0643,2.0647,2.0655,2.0585,2.0586,2.0587,2.0641,0,2.0129,2.0201,2.0222,2.0282,2.0319,2.0332,2.0366,2.0398,2.0419,2.0453,2.0475,2.0513,2.0506,2.0521,2.0547,2.0572,2.0602,2.0568,2.0619,2.062,2.0611,2.0664,2.0668,2.0717,2.0648,2.0649,2.065,0,2.0187,2.0224,2.0289,2.0334,2.035,2.0381,2.0424,2.0456,2.0493,2.0506,2.0535,2.0546,2.0589,2.0573,2.0633,2.0609,2.0631,2.0647,2.0649,2.0656,2.0638,2.0675,2.0732,2.074,2.0661,2.066,2.0659,0,2.0207,2.0272,2.0321,2.034,2.0393,2.0415,2.0437,2.0474,2.0499,2.0536,2.0554,2.0594,2.0617,2.0649,2.0671,2.0657,2.073,2.0716,2.0744,2.0743,2.0759,2.0758,2.0824,2.077,2.077,2.0769,2.0769,0,2.0252,2.0292,2.0331,2.0361,2.0407,2.043,2.0475,2.0498,2.0531,2.0566,2.0578,2.0611,2.0637,2.0674,2.0691,2.074,2.0749,2.0762,2.0766,2.0762,2.0761,2.0778,2.0776,2.0771,2.0771,2.0771,2.077,0,2.0281,2.0309,2.0363,2.0409,2.0422,2.0454,2.0494,2.0524,2.0545,2.059,2.0602,2.0636,2.068,2.0705,2.0759,2.0771,2.0826,2.0828,2.0814,2.0817,2.0845,2.0843,2.0925,2.0938,2.0873,2.0873,2.0874,0,2.0309,2.0341,2.0392,2.0417,2.0441,2.0481,2.0508,2.0533,2.0561,2.0608,2.0633,2.0678,2.0716,2.0786,2.0815,2.0858,2.0862,2.0888,2.0868,2.0864,2.0866,2.0865,2.0869,2.0891,2.0892,2.0892,2.0893,0,2.0358,2.0371,2.041,2.0456,2.0488,2.0524,2.056,2.058,2.0611,2.0642,2.0689,2.0718,2.0776,2.0821,2.0867,2.089,2.0898,2.0899,2.0908,2.0905,2.0897,2.0905,2.0826,2.0897,2.0897,2.0896,2.0896,2.0896,2.0389,2.0419,2.0461,2.0505,2.0536,2.057,2.0602,2.0629,2.0668,2.0719,2.0731,2.078,2.0819,2.0882,2.0907,2.0946,2.0941,2.0954,2.0958,2.0961,2.0964,2.089,2.0954,2.0954,2.0954,2.0954,2.0954,0,2.044,2.0469,2.0509,2.0561,2.0597,2.0602,2.0643,2.0672,2.0716,2.0753,2.0791,2.0845,2.089,2.0924,2.0971,2.0996,2.1001,2.1007,2.1007,2.1013,2.0963,2.0952,2.1003,2.1003,2.1003,2.1003,2.1003,2.1003,2.0471,2.0524,2.0542,2.0611,2.0638,2.0689,2.0712,2.0745,2.0774,2.0836,2.0874,2.0897,2.0933,2.0983,2.1025,2.1033,2.1051,2.1058,2.1068,2.1021,2.1016,2.1011,2.1001,2.1061,2.1061,2.1114,2.1115,2.1115]}]]